Weather History for EHKV - January, 2014

Change the Weather History Date:

Monday, January 13, 2014

  Actual Average Record
Temperature  
Mean Temperature 46 °F -  
Max Temperature 49 °F - - ()
Min Temperature 43 °F - - ()
Degree Days  
Heating Degree Days 19    
Moisture  
Dew Point 42 °F    
Average Humidity 80    
Maximum Humidity 93    
Minimum Humidity 63    
Precipitation  
Precipitation 0.00 in - - ()
Sea Level Pressure  
Sea Level Pressure 29.69 in    
Wind  
Wind Speed 25 mph ()    
Max Wind Speed 43 mph    
Max Gust Speed 34 mph    
Visibility 7.2 miles    
Events Rain    
T = Trace of Precipitation, MM = Missing Value Source: Averaged Metar Reports

Daily Weather History Graph

Daily Weather History Graph

Search for Another Location

Airport or City:

Trip Planner

Search our weather history database for the weather conditions in past years. The results will help you decide how hot, cold, wet, or windy it might be!

Date:

Astronomy

Jan. 13, 2014 Rise Set
Actual Time 8:54 AM CET 4:54 PM CET
Civil Twilight 8:13 AM CET 5:35 PM CET
Nautical Twilight 7:29 AM CET 6:19 PM CET
Astronomical Twilight 6:47 AM CET 7:01 PM CET
Moon 2:59 PM CET (1/13) 6:27 AM CET (1/13)
Length of Visible Light 9h 21m
Length of Day
8h 00m
Waxing Gibbous, 93% of the Moon is Illuminated
Jan 13
Waxing Gibbous
Jan 16
Full
Jan 24
Last Quarter
Jan 30
New
Feb 6
First Quarter

Hourly Weather History & Observations

Time (CET) Temp. Windchill Dew Point Humidity Pressure Visibility Wind Dir Wind Speed Gust Speed Precip Events Conditions
12:00 AM 45 °F - 38 °F 68% 29.81 in 11 mi SSW 24.6 mph - -   Overcast
12:25 AM 44.6 °F 35.1 °F 39.2 °F 81% 29.77 in 6.2 mi SSW 27.6 mph - N/A   Mostly Cloudy
12:55 AM 44.6 °F 35.1 °F 41.0 °F 87% 29.77 in 3.1 mi SSW 27.6 mph - N/A   Mostly Cloudy
1:00 AM 44 °F - 42 °F 89% 29.77 in 3 mi SSW 22.4 mph - -   Mist
1:25 AM 44.6 °F 35.7 °F 42.8 °F 93% 29.74 in - SSW 24.2 mph - N/A   Overcast
1:55 AM 44.6 °F 35.1 °F 42.8 °F 93% 29.71 in 3.7 mi SSW 27.6 mph - N/A   Overcast
2:00 AM 45 °F - 43 °F 90% 29.73 in 4 mi SSW 24.6 mph - -   Mist
2:25 AM 46.4 °F 37.0 °F 42.8 °F 87% 29.71 in 3.7 mi SSW 31.1 mph - N/A   Overcast
2:55 AM 46.4 °F 37.5 °F 44.6 °F 93% 29.68 in 3.7 mi South 27.6 mph - N/A   Overcast
3:00 AM 46 °F - 44 °F 89% 29.70 in 4 mi SSW 24.6 mph - -   Mist
3:25 AM 46.4 °F 37.2 °F 44.6 °F 93% 29.68 in 3.7 mi SSW 29.9 mph - N/A   Overcast
3:55 AM 46.4 °F 36.9 °F 44.6 °F 93% 29.65 in 3.1 mi SSW 32.2 mph - N/A Rain Light Rain
4:00 AM 47 °F - 45 °F 88% 29.66 in 4 mi SSW 26.8 mph - - Rain Light Rain Showers
4:25 AM 46.4 °F 37.2 °F 44.6 °F 93% 29.62 in 3.7 mi South 29.9 mph - N/A Rain Rain
4:55 AM 48.2 °F - 44.6 °F 87% 29.62 in 3.1 mi South 29.9 mph - N/A Rain Rain
5:00 AM 47 °F - 46 °F 92% 29.63 in 4 mi South 24.6 mph - - Rain Light Drizzle
5:25 AM 48.2 °F - 46.4 °F 93% 29.59 in 3.1 mi SSW 31.1 mph - N/A   Drizzle
5:55 AM 50.0 °F - 46.4 °F 87% 29.62 in 6.2 mi WSW 34.5 mph - N/A   Mostly Cloudy
6:00 AM 50 °F - 46 °F 82% 29.63 in 9 mi WSW 29.1 mph - - Rain Rain
6:25 AM 50.0 °F - 44.6 °F 82% 29.62 in 6.2 mi WSW 36.8 mph - N/A   Mostly Cloudy
6:55 AM 48.2 °F - 44.6 °F 87% 29.62 in 6.2 mi West 42.6 mph - N/A   Overcast
7:00 AM 48 °F - 44 °F 80% 29.64 in 9 mi West 33.6 mph - -   Partly Cloudy
7:25 AM 48.2 °F - 42.8 °F 82% 29.62 in 6.2 mi West 42.6 mph - N/A   Overcast
7:55 AM 48.2 °F - 41.0 °F 76% 29.65 in 6.2 mi West 41.4 mph - N/A   Mostly Cloudy
8:00 AM 47 °F - 41 °F 74% 29.67 in 11 mi West 33.6 mph - -   Scattered Clouds
8:25 AM 46.4 °F 36.0 °F 41.0 °F 81% 29.68 in 6.2 mi West 39.1 mph - N/A   Scattered Clouds
8:55 AM 46.4 °F 36.3 °F 41.0 °F 81% 29.68 in 6.2 mi West 36.8 mph - N/A   Partly Cloudy
9:00 AM 47 °F - 41 °F 73% 29.71 in 12 mi West 29.1 mph - -   Scattered Clouds
9:25 AM 46.4 °F 36.9 °F 41.0 °F 81% 29.71 in 6.2 mi West 32.2 mph - N/A   Scattered Clouds
9:55 AM 46.4 °F 37.2 °F 41.0 °F 81% 29.71 in 6.2 mi West 29.9 mph - N/A   Partly Cloudy
10:00 AM 47 °F - 42 °F 76% 29.73 in 11 mi West 24.6 mph - -   Scattered Clouds
10:25 AM 46.4 °F 37.7 °F 42.8 °F 87% 29.71 in 6.2 mi West 26.5 mph - N/A   Partly Cloudy
10:55 AM 46.4 °F 37.7 °F 41.0 °F 81% 29.71 in 6.2 mi WSW 26.5 mph - N/A   Partly Cloudy
11:00 AM 47 °F - 41 °F 73% 29.74 in 10 mi WSW 20.1 mph - -   Partly Cloudy
11:25 AM 46.4 °F 38.1 °F 41.0 °F 81% 29.74 in 6.2 mi WSW 24.2 mph - N/A   Mostly Cloudy
11:55 AM 46.4 °F 38.1 °F 41.0 °F 81% 29.74 in 6.2 mi WSW 24.2 mph - N/A   Mostly Cloudy
12:00 PM 47 °F - 41 °F 74% 29.75 in 11 mi WSW 20.1 mph - -   Partly Cloudy
12:25 PM 46.4 °F 38.3 °F 41.0 °F 81% 29.74 in 6.2 mi WSW 23.0 mph - N/A   Mostly Cloudy
12:55 PM 46.4 °F 38.7 °F 41.0 °F 81% 29.74 in 6.2 mi WSW 20.7 mph - N/A   Scattered Clouds
1:00 PM 47 °F - 42 °F 76% 29.74 in 11 mi WSW 15.7 mph - -   Partly Cloudy
1:25 PM 46.4 °F 39.0 °F 41.0 °F 81% 29.71 in 6.2 mi WSW 19.6 mph - N/A   Mostly Cloudy
1:55 PM 46.4 °F 38.7 °F 41.0 °F 81% 29.71 in 6.2 mi WSW 20.7 mph - N/A   Mostly Cloudy
2:00 PM 47 °F - 41 °F 74% 29.73 in 14 mi SW 17.9 mph - -   Scattered Clouds
2:25 PM 46.4 °F 39.0 °F 41.0 °F 81% 29.71 in 6.2 mi SW 19.6 mph - N/A   Mostly Cloudy
2:55 PM 48.2 °F - 41.0 °F 76% 29.68 in 6.2 mi SSW 18.4 mph - N/A   Mostly Cloudy
3:00 PM 47 °F - 42 °F 76% 29.71 in 14 mi SW 15.7 mph - -   Partly Cloudy
3:25 PM 48.2 °F - 41.0 °F 76% 29.71 in 6.2 mi SW 20.7 mph - N/A   Scattered Clouds
3:55 PM 48.2 °F - 41.0 °F 76% 29.68 in 6.2 mi SW 20.7 mph - N/A   Partly Cloudy
4:00 PM 48 °F - 41 °F 68% 29.71 in 17 mi SSW 17.9 mph - -   Scattered Clouds
4:25 PM 48.2 °F - 41.0 °F 76% 29.68 in 6.2 mi SSW 19.6 mph - N/A   Partly Cloudy
4:55 PM 48.2 °F - 41.0 °F 76% 29.68 in 6.2 mi SW 25.3 mph - N/A   Mostly Cloudy
5:00 PM 48 °F - 39 °F 63% 29.70 in 16 mi SW 22.4 mph - -   Scattered Clouds
5:25 PM 48.2 °F - 39.2 °F 71% 29.68 in 6.2 mi SW 24.2 mph - N/A   Scattered Clouds
5:55 PM 48.2 °F - 41.0 °F 76% 29.68 in 6.2 mi SW 23.0 mph - N/A   Partly Cloudy
6:00 PM 48 °F - 40 °F 64% 29.69 in 17 mi SW 20.1 mph - -   Scattered Clouds
6:25 PM 48.2 °F - 41.0 °F 76% 29.68 in 6.2 mi SW 20.7 mph - N/A   Partly Cloudy
6:55 PM 48.2 °F - 41.0 °F 76% 29.68 in 6.2 mi SW 21.9 mph - N/A   Partly Cloudy
7:00 PM 48 °F - 41 °F 69% 29.70 in 13 mi SSW 17.9 mph - -   Partly Cloudy
7:25 PM 48.2 °F - 41.0 °F 76% 29.68 in 6.2 mi SSW 20.7 mph - N/A   Partly Cloudy
7:55 PM 48.2 °F - 41.0 °F 76% 29.68 in 6.2 mi SSW 25.3 mph - N/A   Mostly Cloudy
8:00 PM 49 °F - 42 °F 70% 29.69 in 9 mi SSW 20.1 mph - - Rain Light Rain Showers
8:25 PM 48.2 °F - 42.8 °F 82% 29.68 in 6.2 mi SSW 26.5 mph - N/A   Mostly Cloudy
8:55 PM 48.2 °F - 42.8 °F 82% 29.65 in 6.2 mi South 25.3 mph - N/A   Light Drizzle
9:00 PM 49 °F - 42 °F 69% 29.68 in 9 mi SSW 22.4 mph - - Rain Rain
9:25 PM 48.2 °F - 42.8 °F 82% 29.65 in 6.2 mi SSW 27.6 mph - N/A   Mostly Cloudy
9:55 PM 48.2 °F - 42.8 °F 82% 29.65 in 6.2 mi SSW 26.5 mph - N/A   Mostly Cloudy
10:00 PM 49 °F - 43 °F 71% 29.67 in 9 mi South 22.4 mph - -   Partly Cloudy
10:25 PM 46.4 °F 38.5 °F 39.2 °F 76% 29.65 in 6.2 mi SW 21.9 mph 34.5 mph N/A Rain Light Rain
10:55 PM 46.4 °F 40.4 °F 39.2 °F 76% 29.65 in 6.2 mi SW 13.8 mph - N/A   Mostly Cloudy
11:00 PM 47 °F - 41 °F 74% 29.66 in 16 mi SSW 11.2 mph - - Rain Rain
11:25 PM 48.2 °F - 42.8 °F 82% 29.62 in 6.2 mi South 23.0 mph - N/A   Mostly Cloudy
11:55 PM 48.2 °F - 42.8 °F 82% 29.62 in 6.2 mi South 24.2 mph - N/A   Scattered Clouds